Theta_e
292 294 293 293 293 294 294 293 294 295 294 295 295 296 295 295 295 296 292 293 292 293 293 293 294 293 293 293 295 296 296 296 297 297 298 298 298 298 296 296 296 296 295 295 294 294 293 294 294 293 293 292 292 291 290 289 289 288 288 288 288 288 287 287 287 285 281 281 282 281 281 281 279 280 279 279 279 282 283 281 280 280 280 280 281
293 294 292 293 292 293 293 291 293 292 293 293 294 295 294 294 293 290 292 293 292 293 293 293 292 292 293 293 293 293 294 296 295 295 295 295 295 297 296 295 295 295 295 295 294 294 294 293 294 294 293 292 292 291 290 289 288 287 287 287 287 287 287 287 287 287 284 280 281 281 280 281 279 280 279 278 278 280 281 280 280 280 279 280 280
293 292 292 292 292 291 290 290 290 290 290 291 291 291 291 289 289 291 291 290 289 291 291 291 291 291 292 291 292 292 293 293 292 293 294 294 294 294 295 295 295 294 294 294 295 294 293 293 293 294 293 292 291 291 290 289 288 287 287 287 287 287 287 287 287 285 284 281 281 279 279 279 279 279 279 280 279 280 280 279 279 279 280 279 279
290 290 290 291 290 288 289 289 288 289 289 289 290 289 288 289 288 290 290 289 290 289 290 291 291 291 291 290 290 291 291 290 290 291 293 293 294 294 294 294 294 295 295 295 294 294 293 293 293 293 293 292 291 291 290 289 288 287 287 287 286 287 287 286 286 286 285 280 279 279 279 278 279 280 280 280 279 279 280 280 280 279 279 279 279
288 289 289 290 288 288 288 287 287 288 289 288 289 288 287 288 287 289 289 289 290 289 288 289 290 290 291 291 291 290 290 291 291 290 290 291 293 293 294 294 294 294 294 295 293 294 293 293 293 293 293 291 291 290 289 288 288 287 286 287 286 286 286 286 285 285 283 281 279 279 279 279 279 279 280 278 278 278 279 279 279 278 279 279 279
288 288 288 289 288 287 287 287 287 288 288 288 288 288 287 287 288 288 288 290 289 289 290 289 289 290 290 291 291 291 290 290 291 291 291 290 291 292 292 293 293 294 294 294 294 294 294 293 293 293 292 291 291 290 289 288 288 287 286 287 286 286 286 285 285 284 283 281 279 278 279 278 278 278 279 279 277 276 277 277 278 278 278 278 279
288 288 288 288 287 287 287 287 287 287 287 288 287 287 287 287 287 288 287 288 289 289 288 289 289 289 290 290 290 290 290 290 291 291 291 292 291 291 292 292 293 293 293 293 294 294 294 293 293 293 292 292 291 291 290 289 288 287 287 287 287 286 285 284 284 283 282 281 280 279 278 279 279 277 278 279 278 278 276 276 275 277 278 278 277
288 288 287 286 287 288 287 286 286 287 287 287 287 287 287 286 287 287 286 288 288 289 289 289 289 289 290 290 290 290 290 290 291 291 292 292 291 291 291 291 292 292 292 292 293 293 293 293 293 293 292 292 292 291 291 290 289 287 287 287 286 285 284 284 283 283 281 281 280 278 278 278 278 278 278 278 277 277 277 277 275 276 276 277 278
287 287 287 287 288 287 287 286 286 286 286 287 287 287 287 286 286 286 286 287 288 288 289 289 289 289 289 289 289 289 290 291 291 292 292 291 291 291 291 291 291 291 291 292 292 292 292 292 292 292 292 290 290 291 291 291 290 288 287 287 286 285 284 284 282 282 282 281 280 279 278 277 277 276 275 276 276 276 278 278 277 278 278 277 277
287 287 287 287 287 287 287 286 287 286 286 286 287 286 286 286 286 286 287 287 287 287 287 287 288 289 289 289 288 289 290 291 290 292 292 292 292 292 291 291 291 291 291 290 291 291 291 292 292 289 289 288 288 289 290 291 290 290 289 287 286 285 284 283 282 282 281 280 280 278 277 277 277 276 276 277 278 278 277 277 277 278 277 276 277
286 285 287 287 286 286 287 287 286 287 287 286 286 286 286 286 285 286 286 286 287 287 286 287 288 288 288 289 288 288 289 290 291 293 294 294 292 292 291 291 291 290 290 290 290 290 290 290 290 289 288 288 288 289 290 290 290 290 290 288 287 286 284 283 283 283 282 281 281 279 278 278 278 278 277 278 278 278 278 278 278 277 275 275 274
286 286 285 286 286 286 285 286 286 287 285 286 286 286 285 284 285 286 286 286 286 285 285 287 287 288 288 288 288 289 289 290 292 293 293 294 293 291 291 291 290 290 290 290 290 290 289 289 289 288 288 288 288 288 288 289 289 289 289 289 288 288 288 286 284 283 283 282 281 280 280 279 278 279 278 278 277 278 278 278 278 277 276 275 276
286 286 285 285 285 285 285 285 285 286 286 286 285 284 284 284 285 285 286 286 283 285 286 286 287 287 287 287 288 288 289 291 292 293 293 293 294 292 290 290 290 289 290 289 289 289 289 289 288 287 287 286 286 287 286 286 287 288 288 288 287 288 289 289 289 286 285 283 281 280 280 280 279 279 279 279 280 278 278 277 277 277 277 276 276
285 286 286 286 285 285 284 284 285 285 285 285 284 284 283 285 285 285 285 284 285 285 285 285 286 286 286 287 287 288 288 289 292 292 292 293 293 293 290 289 289 289 289 289 289 289 289 289 288 287 287 286 286 286 285 285 285 286 286 286 286 286 287 288 288 287 286 285 283 281 282 282 281 281 281 282 279 278 278 277 277 277 276 277 278
285 285 285 286 285 286 286 285 285 285 284 284 283 283 284 285 285 285 285 285 285 286 286 285 286 286 286 286 286 287 288 290 291 292 292 292 293 292 289 289 289 288 288 288 288 288 288 288 288 288 287 286 285 285 285 285 285 285 285 285 285 285 285 286 286 286 285 285 285 284 284 283 283 283 282 282 281 281 281 279 278 278 277 275 273
285 285 285 285 285 285 285 285 285 285 285 284 283 284 284 284 285 285 284 284 284 284 284 284 285 285 286 285 285 286 287 290 291 291 292 292 293 289 288 288 288 288 287 287 287 287 287 287 287 287 287 286 286 287 286 285 284 284 284 284 284 284 284 285 287 287 285 285 285 285 284 284 285 282 282 282 281 280 279 277 277 275 274 273 274
286 285 285 285 285 285 285 284 285 285 285 284 284 285 285 285 284 281 283 284 284 284 284 285 285 285 285 285 285 286 286 288 290 290 291 292 291 288 287 287 287 287 287 287 287 287 287 286 286 286 286 285 286 288 288 286 284 283 283 283 283 282 282 284 286 287 286 286 286 286 286 286 286 286 286 286 282 280 278 276 275 275 273 272 272
285 285 285 285 285 284 284 284 284 284 284 284 285 285 285 284 284 282 283 284 284 284 284 284 284 284 284 284 285 285 286 286 288 289 290 291 290 287 287 287 287 287 287 287 287 286 286 286 286 285 285 285 287 287 287 286 284 283 283 282 281 281 281 282 283 284 286 286 286 286 286 287 287 287 287 286 285 282 278 277 276 275 274 274 274
285 285 285 284 284 283 283 282 282 283 283 284 284 285 285 285 285 280 283 282 283 283 282 282 283 283 283 283 284 284 285 285 288 289 290 290 289 287 286 286 286 286 286 286 286 286 285 285 285 285 285 285 287 287 287 286 283 283 282 281 280 280 281 281 281 281 281 281 282 283 283 285 285 284 284 286 284 282 280 280 277 276 275 275 274
284 284 284 284 283 283 283 282 282 282 283 283 284 284 284 283 283 282 282 281 282 282 281 281 281 283 282 282 282 283 283 284 284 288 289 289 290 287 286 285 285 286 286 286 285 284 284 284 284 286 287 287 286 287 287 287 284 283 283 281 280 280 281 281 282 281 281 280 280 281 281 283 282 282 283 283 282 280 280 279 277 277 277 275 274
284 283 283 283 283 283 282 280 282 282 281 282 282 282 281 282 282 281 281 281 279 280 280 280 280 281 281 281 281 281 282 282 283 286 288 289 290 289 286 285 285 286 286 285 285 284 283 283 282 284 286 287 287 287 287 287 286 283 283 282 282 283 283 281 282 282 281 280 279 280 280 280 281 281 281 282 281 279 279 280 278 278 278 276 275
283 282 282 282 282 282 282 281 280 281 280 280 280 281 279 280 280 279 278 278 279 280 280 279 280 280 281 280 280 280 281 282 282 284 286 288 289 289 287 285 286 286 285 285 285 284 284 283 282 283 285 286 286 286 287 287 287 284 283 285 285 285 282 281 282 281 281 280 279 279 279 279 279 279 279 280 280 279 278 278 278 278 278 279 277
282 282 281 281 281 281 281 281 281 280 280 279 278 279 280 278 279 277 276 277 278 279 279 279 279 279 280 281 280 279 279 280 283 282 284 286 288 288 289 287 288 286 285 285 285 284 284 283 282 283 284 285 286 286 286 287 287 285 285 286 286 286 284 281 281 280 280 279 279 278 278 279 278 278 278 279 280 280 279 279 279 278 278 279 280
281 280 281 281 281 281 281 281 281 279 279 279 278 278 279 279 278 277 277 277 278 279 279 278 278 278 279 281 281 279 278 279 280 282 283 285 287 288 288 289 289 286 286 285 285 284 283 282 282 283 284 284 285 286 286 286 285 287 286 286 285 285 283 281 280 280 279 279 279 278 278 278 278 278 278 279 279 280 280 280 280 279 279 279 279
280 280 280 280 280 281 281 281 280 279 279 276 278 279 279 277 279 278 274 276 276 277 279 279 278 279 279 280 281 280 278 278 278 280 283 284 286 287 287 288 289 289 286 285 285 284 284 284 283 284 284 284 285 286 286 286 286 286 286 285 284 284 282 281 280 279 279 278 279 279 279 279 279 279 280 279 279 280 280 280 280 280 279 279 278
279 279 279 280 280 280 280 280 280 279 278 277 277 278 278 278 278 279 277 277 277 277 278 279 278 279 279 280 280 281 279 277 278 278 280 281 283 285 286 287 286 287 287 286 285 285 285 285 284 284 284 284 284 284 283 284 285 286 285 284 284 283 282 281 280 279 278 279 279 279 279 279 279 279 279 279 278 278 279 278 277 276 276 276 275
278 278 278 278 279 279 278 279 280 280 277 277 277 276 276 277 277 278 278 278 278 278 278 278 279 279 279 280 280 280 280 278 277 276 277 278 279 281 282 283 284 285 286 286 286 285 284 284 283 283 283 283 284 284 284 284 284 284 284 284 283 283 283 282 281 280 280 280 279 280 280 280 279 277 277 277 277 278 278 277 277 276 275 275 275
277 276 276 277 278 278 278 279 279 279 280 279 279 279 277 276 277 278 279 279 278 279 279 279 279 280 280 281 281 280 280 279 278 276 277 278 278 279 280 281 281 283 284 285 285 284 282 283 283 282 282 282 283 282 282 283 283 284 284 283 283 283 283 283 282 281 281 281 281 281 280 278 277 277 277 277 277 277 277 276 276 275 275 274 273
275 275 276 276 277 278 278 278 278 279 279 279 279 279 279 280 279 280 281 280 280 281 281 281 282 282 281 281 281 280 281 281 281 281 280 281 279 278 279 280 281 283 284 286 284 282 281 280 280 280 280 280 280 280 281 281 282 283 283 283 283 283 283 282 281 280 281 281 280 280 278 278 277 277 277 276 276 276 276 276 276 275 275 274 273
273 273 274 275 275 276 276 277 277 278 278 278 279 280 279 282 281 280 280 282 283 284 284 282 282 282 280 281 281 281 281 283 285 285 284 284 284 284 283 283 284 284 285 286 284 281 280 279 279 279 279 279 279 279 280 280 280 281 282 283 283 282 282 282 282 281 281 281 280 280 279 278 277 277 276 276 276 276 276 276 275 276 274 273 273
271 271 272 272 273 274 275 275 276 277 277 278 278 278 278 280 283 285 285 283 284 284 285 285 286 286 283 282 283 285 285 285 285 285 285 285 285 285 284 284 285 285 285 285 282 280 279 278 278 279 279 279 279 279 279 280 280 280 281 282 283 283 282 282 282 282 281 281 281 280 280 279 278 277 276 276 276 275 275 276 276 275 275 274 273
269 269 270 271 272 273 274 274 275 275 276 277 277 277 278 278 280 283 284 285 285 285 285 286 286 286 286 285 283 282 284 285 285 285 285 285 285 285 285 285 285 285 286 286 281 280 279 279 278 278 279 278 279 279 279 280 280 280 281 281 282 283 282 282 283 282 282 281 281 280 280 279 279 278 277 277 276 275 275 274 274 274 274 274 274
268 268 269 270 271 272 272 273 274 275 275 276 277 278 278 278 278 279 282 284 285 285 285 285 286 286 286 286 286 285 284 285 285 285 284 284 285 285 285 285 285 285 286 284 281 280 280 279 279 279 278 278 279 279 279 280 280 280 281 281 282 283 283 283 283 282 282 282 281 280 280 280 279 278 277 277 276 275 275 274 274 274 274 273 272
267 268 268 269 270 270 271 272 273 274 275 276 277 278 278 279 279 279 279 280 281 283 285 285 285 285 285 285 285 285 285 285 285 285 285 284 284 285 284 283 285 285 285 282 282 280 280 279 279 279 279 279 279 279 279 280 280 281 281 282 282 283 283 283 283 282 282 282 281 281 280 280 279 278 277 277 276 276 274 274 274 273 272 272 272
266 267 269 269 269 269 270 272 272 273 274 275 276 277 278 279 279 279 279 279 279 279 280 281 284 285 284 284 285 285 285 285 285 285 285 285 284 284 284 282 280 281 282 283 282 281 280 279 279 279 279 279 279 279 279 280 280 281 281 281 282 282 282 282 282 282 282 282 281 281 280 280 279 279 278 276 275 275 274 274 273 273 272 272 272
264 264 265 266 267 268 270 271 272 272 273 274 276 277 278 278 278 279 279 280 279 279 280 281 282 283 284 284 284 285 285 285 285 285 285 284 284 284 280 279 279 279 280 281 282 281 281 280 279 279 279 279 279 279 280 280 280 281 281 282 282 282 281 281 281 281 281 281 281 280 280 280 279 278 278 277 276 275 275 274 273 273 273 272 271
262 263 263 265 266 267 268 269 270 272 274 275 276 277 278 278 279 279 279 279 279 280 280 281 281 281 282 281 281 283 284 284 284 284 284 284 284 283 281 280 279 279 279 280 281 281 281 280 280 280 280 279 279 280 280 280 281 281 281 282 282 281 280 281 281 280 280 280 280 280 279 279 279 278 277 276 275 275 275 274 273 272 272 271 270
262 262 263 265 266 267 267 268 269 272 272 274 276 277 278 278 278 279 279 279 279 279 279 280 280 280 279 280 282 281 281 283 283 283 284 283 282 281 281 280 279 279 279 280 281 282 281 281 280 280 280 280 279 279 280 280 280 281 281 281 281 281 280 280 280 280 280 280 280 279 279 278 278 277 277 276 275 275 274 273 273 271 271 270 270
262 263 265 266 267 266 267 268 269 270 271 272 274 276 277 277 278 278 278 279 279 279 279 279 279 279 280 281 281 281 281 279 279 279 280 281 281 281 280 280 279 279 279 280 281 281 281 281 280 280 280 279 279 278 279 279 279 279 280 280 280 280 280 279 279 280 279 279 279 279 278 278 277 277 276 276 275 274 274 273 272 271 270 269 269
261 262 263 265 265 265 267 267 268 268 270 271 272 274 276 277 277 277 278 278 278 279 279 279 279 279 280 281 280 280 279 279 279 279 280 280 280 280 280 280 279 279 279 279 280 281 281 281 281 280 279 279 278 278 278 278 277 277 277 278 278 278 278 278 278 278 277 277 277 277 277 277 276 276 275 275 275 275 274 272 272 271 271 270 270
260 261 262 263 264 264 265 266 266 267 269 270 271 272 273 275 276 276 277 277 278 278 279 279 279 280 281 281 282 282 280 279 279 279 280 280 280 280 280 280 280 279 279 279 279 280 280 280 279 279 279 278 278 277 277 277 276 276 276 276 276 276 276 276 276 276 276 275 275 275 275 275 275 274 274 274 275 274 273 273 272 271 271 270 270
259 260 260 261 262 263 263 264 265 267 267 268 269 270 272 274 275 276 276 276 277 278 278 278 279 280 280 281 281 281 281 280 280 280 280 280 280 280 280 280 280 280 279 279 279 278 278 277 277 277 277 276 276 276 276 275 275 275 275 275 275 275 274 274 274 274 274 274 274 274 274 274 274 274 274 275 273 273 272 272 271 271 270 270 269
260 260 260 261 261 262 262 263 264 265 266 267 269 270 272 273 274 275 275 276 276 277 277 277 278 278 279 280 280 281 280 280 277 279 279 280 280 279 279 280 280 280 279 278 278 278 277 277 276 276 276 276 276 275 275 275 275 274 274 274 274 274 273 273 273 273 273 273 273 273 273 273 274 273 273 273 273 272 272 271 270 270 270 269 269
260 260 260 261 262 262 263 264 264 265 266 268 269 270 271 272 273 274 275 275 276 276 277 277 277 277 277 278 278 279 279 279 279 279 279 278 277 277 276 276 277 277 277 277 277 277 277 276 276 276 276 276 276 276 276 276 275 275 274 274 273 273 273 273 273 273 273 273 272 272 272 272 272 273 272 272 272 271 271 270 270 269 269 269 269
259 260 260 261 261 262 263 264 265 266 268 268 269 270 271 272 273 273 274 274 274 275 276 276 276 276 275 276 276 277 278 278 277 276 276 276 275 274 274 274 274 273 273 273 274 276 276 276 275 274 272 272 272 273 274 274 275 275 275 274 273 272 273 273 274 274 274 273 273 272 272 272 272 272 272 272 271 271 270 270 270 268 268 268 268
260 260 261 261 262 263 264 265 266 266 267 268 268 269 270 271 272 272 273 273 273 274 274 275 275 274 273 274 275 275 276 275 274 274 273 272 271 270 269 269 269 269 269 270 271 273 273 274 273 272 270 269 268 268 268 268 267 267 268 270 271 272 270 271 272 274 274 274 274 273 272 272 272 271 270 271 271 271 270 270 270 269 269 268 268
260 260 261 261 261 262 263 264 264 264 265 266 267 268 268 269 269 270 270 270 270 270 271 271 271 271 271 272 272 271 270 270 269 268 267 267 267 267 267 267 267 266 265 265 267 268 268 268 268 268 267 266 266 266 266 266 266 266 266 266 267 266 266 268 268 268 268 269 270 272 271 271 270 269 269 269 268 268 268 268 267 267 267 267 266
259 260 260 261 261 261 261 262 262 263 263 264 264 265 266 266 266 266 266 266 266 266 267 267 267 267 266 266 266 265 265 265 265 264 264 264 264 264 265 265 264 264 263 263 263 264 265 265 265 265 265 265 264 264 263 263 264 264 263 263 264 264 264 264 265 265 266 267 267 268 268 267 267 266 266 267 266 266 265 265 264 264 264 264 263
258 259 259 259 260 260 260 260 260 260 261 262 262 263 263 263 263 263 263 263 263 263 264 264 264 264 264 264 264 264 264 263 262 262 262 262 262 263 263 263 263 263 262 261 261 261 261 262 262 262 262 262 262 262 262 262 262 262 263 264 264 263 262 262 263 263 263 264 264 265 265 265 265 264 264 264 264 264 264 264 263 262 262 262 262
258 258 258 259 259 259 260 260 260 260 260 261 260 261 261 261 261 261 261 261 262 261 262 262 262 262 262 262 262 262 262 261 261 261 261 261 261 261 261 261 260 260 260 259 260 260 260 260 260 260 260 259 260 260 261 261 261 262 263 264 264 263 262 261 261 261 262 262 263 263 263 263 262 262 262 262 262 262 262 261 261 260 260 260 260
258 258 258 258 258 259 259 259 259 259 259 260 260 259 260 260 260 260 260 260 260 261 261 261 261 261 261 261 261 261 261 260 261 260 260 260 260 260 260 260 260 260 260 259 259 259 259 259 259 259 259 259 259 259 259 259 261 263 264 263 263 262 261 261 260 260 259 260 261 261 261 260 260 260 259 259 259 259 259 259 258 258 258 259 258
Wind_Speed
5 6 4 5 5 6 6 6 7 6 6 6 7 7 6 6 6 6 4 6 6 7 7 7 7 7 7 7 8 7 7 7 6 6 8 8 7 7 6 8 10 9 8 9 9 9 10 11 11 11 9 10 10 10 10 11 11 10 10 9 11 10 10 12 13 10 1 1 4 7 9 11 10 12 12 10 9 10 9 8 8 8 7 6 6
6 6 4 5 5 6 6 5 5 5 7 7 8 8 6 6 6 4 6 6 6 8 8 7 7 7 8 8 7 7 7 7 6 7 8 8 8 7 7 8 9 9 8 11 10 9 10 12 12 12 11 13 11 11 10 10 10 11 11 11 12 12 12 11 13 11 10 3 4 5 8 12 10 11 14 13 12 9 10 8 6 7 6 6 5
6 5 5 5 7 6 5 5 5 6 7 7 7 7 6 5 5 7 7 6 6 7 7 7 7 7 8 7 7 7 7 7 6 7 8 8 8 8 8 8 9 10 10 11 11 10 11 11 12 12 10 11 12 12 11 11 10 12 13 11 12 11 9 11 9 10 10 6 5 6 7 8 10 11 12 10 9 9 10 9 8 6 5 6 6
7 5 4 6 7 5 6 5 5 6 7 6 7 6 5 5 5 7 7 6 7 6 6 7 7 8 8 7 8 7 7 7 7 8 9 8 8 9 8 8 9 10 11 11 10 10 12 11 12 12 10 12 11 11 10 10 10 11 12 11 11 11 10 9 10 9 5 7 5 6 6 6 6 4 7 5 7 8 8 6 5 6 6 6 7
5 4 4 7 8 7 5 4 5 6 7 6 7 5 6 6 5 7 6 7 7 7 7 6 7 7 9 9 9 9 9 8 9 9 8 8 9 9 9 9 9 10 10 11 10 11 11 12 12 11 11 12 10 10 10 12 12 11 12 11 11 11 10 10 11 7 6 8 5 4 5 5 3 4 8 9 7 6 6 8 9 9 8 7 6
4 3 4 7 9 5 3 3 5 6 6 6 7 6 6 5 6 6 6 7 6 7 8 7 8 9 9 9 9 9 8 8 9 10 9 8 8 8 9 9 9 9 10 10 10 10 11 12 12 11 11 12 13 12 11 13 12 12 13 12 11 9 9 8 8 8 7 6 8 5 5 7 6 4 9 10 10 9 6 5 3 5 5 4 5
3 3 5 8 6 3 3 4 5 6 6 7 6 5 6 6 6 7 6 7 8 8 7 8 8 9 10 9 9 9 9 9 9 9 8 8 9 9 9 9 9 9 9 10 10 10 11 11 11 11 12 12 13 13 12 13 12 14 14 14 11 10 10 9 9 9 9 7 4 6 7 7 8 8 8 10 8 8 11 7 5 4 5 6 5
4 5 6 4 4 5 4 4 5 6 6 6 6 6 6 5 6 6 5 8 9 8 8 9 8 7 10 9 9 8 8 8 9 9 8 8 8 8 8 9 9 9 9 10 10 10 11 11 11 12 13 13 13 13 13 13 12 12 11 10 10 11 11 10 10 10 9 8 9 8 7 8 7 4 5 7 8 6 8 11 13 11 8 7 7
4 3 5 5 5 4 5 4 4 5 5 5 5 6 6 6 6 6 6 7 7 7 6 6 7 9 9 8 8 7 8 10 8 9 9 9 8 9 9 9 10 10 10 10 10 10 10 10 11 11 13 15 18 17 15 13 11 12 11 11 11 12 11 9 10 10 10 10 9 7 8 8 9 10 9 11 13 16 14 11 10 9 7 5 6
7 6 6 5 5 5 5 5 5 4 5 5 6 5 5 5 5 6 7 7 6 6 6 6 8 10 9 8 8 7 8 8 10 15 13 10 8 8 9 10 10 10 10 10 9 9 10 10 10 15 16 17 17 18 18 18 17 14 12 12 13 12 12 12 11 11 11 12 12 11 10 11 11 11 12 14 13 8 8 10 10 7 6 6 5
5 4 6 5 5 5 5 6 5 5 5 5 5 5 6 5 5 6 6 6 7 6 6 8 9 8 9 9 8 8 8 8 14 15 16 16 11 9 10 10 9 10 10 10 11 10 10 10 10 11 13 13 14 17 18 18 18 18 17 16 16 16 14 13 13 12 12 12 10 11 12 12 12 11 12 11 10 12 12 11 11 8 9 10 10
5 5 4 5 5 5 5 5 5 6 5 5 5 5 5 5 6 6 6 7 7 4 7 9 9 8 8 9 10 10 10 11 16 16 16 16 14 11 9 9 9 9 9 10 10 9 9 9 9 8 9 10 11 11 14 17 18 19 19 18 19 21 20 17 15 13 13 11 11 13 12 13 13 12 12 9 10 8 7 9 10 12 10 10 9
6 6 5 4 5 5 5 5 5 5 5 5 5 4 5 5 6 6 8 7 4 6 9 8 9 8 8 9 10 10 10 11 15 16 16 17 17 15 10 10 10 10 10 10 10 9 8 9 9 8 8 12 11 10 9 11 15 18 18 18 19 22 24 24 20 17 15 13 13 13 14 12 12 12 13 14 12 12 9 8 9 10 10 9 10
5 6 6 5 5 5 5 5 5 6 5 5 5 5 4 7 6 6 6 5 6 7 7 9 8 8 8 9 10 10 10 11 15 16 16 17 17 15 10 10 10 10 11 10 9 10 10 10 10 9 8 8 9 9 9 9 9 10 11 11 12 16 20 22 20 17 14 14 14 14 13 11 12 12 15 12 13 12 11 11 10 9 10 12 7
5 5 6 7 6 6 7 6 7 7 5 5 5 5 6 6 6 6 6 6 7 8 8 8 8 8 9 9 9 10 10 11 14 16 16 17 17 15 10 9 9 9 9 9 9 10 9 9 10 10 8 8 8 10 10 10 9 9 10 11 11 9 11 12 12 11 11 9 11 13 13 12 12 10 11 11 15 13 14 14 15 12 6 4 4
5 6 7 7 7 6 6 7 7 7 6 6 5 6 5 6 7 6 5 6 6 6 7 6 9 9 9 8 9 12 10 12 14 15 16 16 17 11 9 9 10 9 9 9 9 9 9 9 9 9 9 9 11 17 14 9 9 11 11 11 10 9 10 11 13 12 11 11 9 9 6 9 8 9 12 11 9 6 7 7 7 6 7 6 8
7 7 7 7 7 7 6 7 8 8 7 7 7 7 7 7 6 4 6 7 7 7 8 8 8 8 8 8 10 12 10 10 14 16 16 17 13 9 8 9 9 10 10 9 9 9 9 9 8 9 9 9 12 16 17 14 10 12 11 11 9 8 8 5 8 10 10 8 6 7 9 13 12 13 17 18 12 10 9 8 8 9 9 9 7
6 6 7 7 7 7 7 6 7 8 7 8 8 8 6 5 5 4 6 7 8 8 7 8 7 7 9 10 10 11 11 9 13 15 16 16 13 10 8 8 10 10 10 9 8 8 9 12 11 9 10 10 14 17 18 16 12 12 10 10 10 9 7 4 4 4 7 8 9 10 12 14 16 18 19 19 19 15 13 13 12 11 10 10 10
8 9 9 8 7 6 6 6 6 7 7 8 7 8 8 7 6 4 6 6 8 7 6 7 8 7 8 10 10 11 12 10 11 14 15 16 13 9 8 8 10 10 8 9 7 7 7 9 14 13 11 12 16 16 18 15 11 10 10 10 12 12 10 9 9 9 7 7 6 6 6 10 10 9 12 22 22 16 12 8 10 12 12 10 6
7 7 7 7 7 7 6 6 6 6 8 8 7 7 6 7 6 6 6 6 7 7 6 7 9 10 7 8 9 9 11 10 7 12 14 16 17 11 8 9 11 10 9 9 8 7 8 8 10 16 18 16 14 17 19 20 13 11 10 12 12 13 8 10 11 11 11 11 10 9 8 8 7 7 9 11 12 12 9 8 11 10 10 8 8
7 7 8 8 7 7 6 5 8 7 5 8 8 7 6 7 7 6 7 7 6 8 7 8 9 11 8 7 8 9 8 10 8 11 14 15 17 16 9 11 10 9 9 9 9 9 8 8 7 10 17 18 18 20 19 21 18 12 12 13 13 10 13 12 14 15 11 10 9 8 7 7 7 7 8 8 8 8 8 7 8 9 9 9 8
7 7 8 9 8 8 7 7 5 6 6 6 8 8 5 5 6 6 6 6 8 9 7 7 8 10 9 7 8 9 7 11 10 10 14 16 17 19 12 11 10 9 10 10 9 9 9 7 7 10 16 18 18 19 21 21 21 12 11 12 12 15 14 10 10 10 9 9 9 8 8 8 8 7 8 8 8 9 8 7 7 7 6 7 9
7 7 8 8 8 8 8 7 8 6 7 6 6 9 7 6 7 5 6 7 7 9 9 7 8 10 11 9 7 8 7 8 12 10 11 16 17 19 20 15 11 11 10 12 11 9 7 7 7 10 15 18 19 19 20 22 19 12 16 18 17 18 14 9 9 9 9 9 9 10 10 9 9 8 8 8 8 8 8 7 6 6 6 5 4
7 8 8 8 9 9 9 9 8 7 7 8 7 8 9 7 7 7 6 6 7 9 9 6 7 9 11 12 9 6 6 7 8 13 12 16 18 20 20 20 16 12 10 11 9 7 7 7 7 13 16 17 19 20 20 20 13 17 21 21 20 18 11 10 9 10 10 10 10 10 10 9 8 8 9 9 8 8 7 7 7 7 7 5 5
10 9 10 9 9 9 10 8 8 7 6 6 8 9 8 6 9 7 4 6 6 7 10 7 8 9 10 11 12 8 5 6 7 9 14 14 18 19 19 19 19 18 13 11 9 8 7 9 11 14 15 17 18 19 17 19 22 19 22 22 17 10 9 9 9 9 11 12 11 10 9 10 11 10 7 6 7 6 6 5 5 5 5 5 4
10 9 9 9 9 9 10 11 8 6 6 6 6 6 7 8 8 9 7 6 7 7 9 9 8 9 10 11 11 11 8 6 7 7 6 10 12 16 18 18 18 18 18 14 14 14 14 14 15 16 16 15 12 10 9 10 18 20 21 20 12 10 10 10 10 12 12 11 11 11 10 9 8 6 8 8 8 9 9 8 7 7 7 6 6
9 9 10 10 9 7 8 8 9 9 6 5 6 6 6 6 7 9 8 7 7 8 9 9 10 9 10 11 11 10 9 8 7 6 6 7 9 9 10 12 15 16 13 12 12 10 11 12 10 12 9 14 15 13 12 11 11 13 12 12 11 11 11 11 12 11 10 9 9 9 9 7 6 8 8 9 9 8 8 8 8 8 7 6 7
9 9 10 9 8 8 9 10 10 9 9 7 8 9 6 5 7 9 10 8 7 9 9 9 10 10 10 10 10 10 11 9 7 7 7 8 8 8 7 7 7 8 10 9 9 9 8 9 10 8 8 8 9 7 8 8 9 10 10 10 11 11 11 12 10 8 9 9 8 8 6 7 9 9 7 7 8 7 8 9 9 8 7 7 6
11 10 10 9 10 9 8 9 9 9 10 10 8 7 8 9 9 10 10 7 8 10 10 11 12 9 8 10 11 11 12 12 9 7 10 10 10 8 8 8 8 8 10 11 7 5 5 6 7 8 8 9 8 9 8 8 9 10 11 10 10 10 10 10 12 11 9 8 9 9 9 9 8 8 8 7 7 8 8 8 7 8 7 7 9
11 11 10 10 10 10 10 10 9 9 9 10 11 13 10 11 10 10 12 11 12 16 15 13 13 9 9 10 9 10 13 13 8 9 13 15 16 16 14 13 12 10 9 14 10 7 8 8 8 8 8 8 9 9 9 9 9 9 9 10 10 10 11 10 10 9 9 9 9 9 9 9 9 9 9 9 7 7 9 10 9 8 9 9 8
10 10 11 10 12 12 11 10 10 9 9 9 9 10 13 14 12 15 17 19 18 17 19 22 22 21 14 13 15 20 19 22 22 18 16 16 16 17 18 18 18 17 16 9 8 8 8 8 9 8 9 9 10 10 9 9 9 9 9 9 9 10 11 10 10 9 9 10 9 9 9 9 9 10 10 9 9 8 8 7 7 8 8 9 8
11 11 10 11 12 11 10 10 10 10 10 9 8 9 10 12 16 16 12 13 18 18 17 19 20 19 21 19 16 14 18 20 20 19 18 18 17 17 18 19 19 19 19 17 10 10 10 10 10 10 9 9 9 8 9 9 9 9 9 9 10 10 11 11 10 10 9 9 9 8 8 8 9 9 9 9 9 9 9 8 8 8 8 7 8
10 11 10 12 12 12 11 10 10 9 11 11 11 9 9 10 12 16 19 13 12 17 21 18 18 19 19 20 21 20 20 20 22 20 18 19 19 17 16 19 19 19 19 14 12 12 11 11 11 10 10 11 10 10 10 9 9 9 9 10 10 9 9 9 10 10 9 9 9 9 8 8 9 9 9 9 10 9 9 9 8 8 8 8 7
10 9 9 10 12 11 11 10 10 10 10 9 10 9 10 10 10 12 13 16 17 13 13 16 17 17 17 19 22 23 22 23 22 22 21 18 17 16 16 13 18 20 18 12 12 11 10 10 11 11 11 11 10 10 10 9 9 8 8 9 9 7 7 9 10 10 9 10 10 9 9 9 9 9 9 9 9 9 9 8 8 8 8 9 9
9 11 16 13 9 10 10 10 10 10 11 11 10 11 11 10 9 11 11 13 13 15 15 12 10 12 14 13 15 18 21 23 23 22 21 18 17 17 16 10 10 10 13 13 12 11 11 11 11 11 10 10 10 10 10 9 9 9 9 8 8 7 7 9 10 10 10 9 9 9 9 9 9 9 10 10 9 9 9 9 9 9 10 9 8
10 9 9 10 10 10 10 10 10 11 12 12 11 10 9 10 11 10 10 11 12 13 14 13 11 9 15 17 18 18 19 20 20 21 22 19 17 17 11 11 10 10 11 12 12 11 10 10 10 9 9 8 7 8 8 8 8 8 8 8 8 8 8 8 8 9 9 10 9 9 9 8 8 8 8 8 11 11 9 10 9 9 9 9 8
10 10 9 9 9 9 10 11 11 11 13 13 12 9 10 10 10 10 10 11 12 12 13 13 12 12 10 8 10 16 19 19 20 20 21 21 21 15 11 10 10 10 10 11 10 9 9 9 9 8 8 8 7 7 7 8 7 8 7 8 7 7 7 7 8 7 9 8 8 9 10 9 8 8 9 9 8 8 8 9 9 9 9 9 8
10 10 9 10 11 12 11 11 11 15 13 12 11 10 9 10 10 9 10 11 13 12 13 13 11 12 12 11 6 7 10 15 18 18 18 18 14 11 11 10 10 10 10 9 9 9 9 8 7 8 7 7 7 7 7 7 7 7 8 8 8 7 8 8 9 9 8 8 8 8 8 8 8 8 8 8 8 8 8 8 8 8 8 9 9
9 14 17 19 15 12 11 12 12 11 12 12 12 12 11 10 10 10 10 10 11 12 12 12 12 12 11 9 8 7 8 9 8 9 9 9 10 10 10 10 10 10 9 9 8 8 8 8 7 7 7 7 7 7 7 7 7 7 7 7 7 6 8 7 8 8 8 8 7 7 7 7 7 8 8 7 7 8 8 8 8 9 9 9 9
11 10 12 18 13 12 12 12 12 12 12 12 13 12 11 10 10 10 10 11 11 12 11 12 12 12 10 8 8 7 8 10 9 9 9 9 9 10 10 10 10 10 9 8 8 8 7 6 7 7 7 7 7 7 7 7 6 7 6 7 8 8 8 7 7 7 7 6 6 6 7 7 7 6 6 7 7 7 8 9 9 9 9 8 8
10 12 12 12 13 12 12 11 11 12 11 12 12 12 13 13 11 11 11 12 12 12 12 12 12 12 10 11 14 14 10 10 10 9 9 10 9 10 10 10 9 9 8 8 7 6 5 4 5 6 6 6 6 6 6 6 6 6 6 6 6 7 6 6 6 6 6 6 6 6 6 6 6 7 7 6 6 6 6 7 7 7 7 7 8
11 11 11 11 12 11 11 12 12 13 13 13 13 13 13 12 10 10 12 13 12 12 12 12 12 11 11 16 16 17 13 10 10 9 9 9 9 9 8 8 7 7 6 5 4 4 3 4 4 4 5 5 6 5 5 5 6 6 6 6 6 6 6 6 6 6 6 6 6 6 6 6 6 6 6 5 5 5 6 6 7 7 7 7 7
11 11 11 12 11 11 11 12 13 12 12 12 12 12 13 14 13 12 13 12 13 12 12 13 12 11 11 13 14 15 10 10 9 10 9 8 8 7 6 6 5 5 4 4 4 4 4 5 5 4 5 5 6 6 7 6 6 5 5 6 6 6 6 5 5 5 5 5 5 5 5 5 5 4 4 4 5 5 6 6 6 6 7 7 6
9 10 11 11 11 11 11 10 11 12 12 14 16 15 14 12 12 12 11 12 11 11 11 11 11 11 10 10 10 9 9 9 9 8 8 5 4 3 3 3 4 4 4 5 5 5 5 5 5 4 4 4 4 5 5 5 6 6 6 5 5 5 5 5 5 5 6 5 5 5 5 5 5 5 5 4 6 6 6 7 7 7 6 6 6
9 9 9 10 11 11 11 11 10 10 13 14 12 12 12 10 11 13 12 12 12 12 11 11 11 10 8 8 8 8 8 8 5 4 4 4 4 3 3 3 4 4 4 4 3 4 4 5 5 5 5 4 3 4 4 4 3 4 5 6 6 5 5 6 6 6 6 7 6 6 6 6 6 6 6 6 6 6 6 6 6 6 6 6 7
9 9 10 10 10 10 10 10 11 11 12 12 12 12 10 10 10 10 9 11 11 11 11 11 9 8 7 7 6 5 6 2 0 1 2 4 4 3 4 4 5 5 5 4 4 4 4 4 5 5 5 5 5 5 5 5 5 5 5 4 4 4 3 3 3 5 6 6 6 6 6 7 6 6 6 6 6 6 6 6 6 6 7 7 6
9 9 10 11 11 12 12 12 11 11 11 11 10 11 11 9 10 9 9 10 10 8 9 7 6 5 5 4 4 4 4 4 4 4 4 5 5 4 4 5 6 6 5 5 6 5 6 6 6 6 6 5 5 6 5 5 6 6 6 5 5 5 5 4 5 5 5 4 4 5 5 5 5 5 4 5 4 4 4 4 5 5 4 5 5
9 9 9 10 10 10 10 10 11 13 11 11 11 11 10 10 9 8 7 7 7 7 6 6 5 5 4 5 5 5 5 4 4 5 5 5 5 6 5 6 6 5 5 6 6 6 6 6 6 5 6 6 7 6 6 6 7 7 6 6 6 6 7 8 7 7 6 6 6 6 6 6 5 5 4 5 4 4 4 4 4 3 3 4 3
8 8 9 9 9 9 9 10 10 10 10 11 11 10 9 9 8 8 7 7 7 7 6 6 6 5 5 5 5 5 5 5 5 5 5 5 5 6 6 6 6 6 6 6 6 7 8 6 7 7 7 7 8 7 7 7 6 6 6 6 7 10 10 10 7 6 7 7 6 6 6 6 6 5 5 5 4 4 4 4 4 4 4 4 4
7 8 8 9 9 8 8 8 8 8 9 9 9 10 9 9 8 8 8 7 6 7 7 7 7 7 7 6 6 6 5 5 5 5 5 6 6 6 6 7 7 6 7 7 8 7 7 7 7 8 8 7 7 7 6 6 6 6 6 7 11 11 10 10 9 9 7 5 6 5 5 5 5 5 4 4 4 4 4 4 4 3 4 4 4
8 8 8 8 8 8 8 8 9 9 8 9 8 9 9 8 8 8 8 8 7 7 6 6 6 6 6 6 6 6 6 6 6 6 6 6 6 6 7 7 6 7 6 7 6 8 6 6 7 6 5 5 5 7 7 6 5 5 9 12 11 10 9 7 7 7 9 6 5 6 6 6 6 6 5 4 4 4 4 5 4 4 4 4 4
Wind_Direction
248 242 221 230 227 227 223 215 224 220 223 220 225 228 224 218 216 216 206 216 202 211 213 212 213 213 216 217 218 218 216 218 215 216 223 229 226 223 214 212 219 224 219 222 220 218 220 223 222 221 213 214 212 212 210 211 210 214 212 212 220 213 205 215 226 237 264 354 161 172 163 159 180 189 186 184 182 189 185 191 182 189 188 190 200
250 251 237 236 232 235 231 226 223 222 226 224 225 226 224 218 214 205 215 220 201 216 215 215 212 213 216 220 220 221 218 218 214 214 224 229 232 223 221 215 220 225 216 225 219 218 218 220 222 221 213 216 211 213 209 209 206 210 211 211 217 215 208 205 224 226 218 134 160 140 161 179 178 186 191 184 186 181 184 183 191 190 187 179 190
259 242 237 240 239 232 230 231 222 228 231 233 234 232 230 223 203 211 220 221 217 217 219 215 213 214 219 221 219 220 219 218 215 214 225 225 227 228 223 218 221 223 223 225 222 218 221 222 225 222 217 217 215 217 207 209 206 209 215 212 219 219 208 213 214 224 216 203 156 163 173 182 188 185 196 195 183 178 178 182 186 190 189 180 186
249 237 237 246 246 234 229 232 226 233 238 239 242 238 231 228 214 219 219 209 218 225 221 219 215 216 221 222 218 218 219 217 218 218 222 220 224 228 225 224 225 227 228 228 225 219 221 222 226 223 217 219 219 219 211 209 205 212 216 212 215 216 210 206 216 220 202 172 179 169 175 166 194 166 183 170 167 177 185 173 170 191 188 187 187
238 245 237 249 249 236 237 230 237 243 245 246 247 239 229 226 218 226 224 224 217 212 222 216 220 220 222 221 219 218 216 212 217 222 222 219 222 224 225 226 226 228 228 229 225 222 222 223 225 220 217 221 219 218 209 209 209 210 213 211 210 212 207 204 210 201 179 180 145 162 153 159 132 126 167 172 168 174 177 186 189 188 190 190 184
258 255 247 244 249 244 254 250 246 249 252 253 248 242 237 229 227 229 220 233 231 224 217 209 211 222 223 225 220 222 215 215 220 222 219 216 220 224 226 227 229 229 230 229 227 224 224 225 225 220 218 216 219 216 211 212 209 211 213 213 211 205 206 205 198 201 191 171 153 131 173 162 159 172 177 178 174 178 180 183 177 194 185 174 198
274 249 247 241 259 292 287 260 251 253 250 250 248 245 240 234 227 233 222 226 231 230 224 223 220 216 225 224 224 221 218 217 223 224 223 220 220 222 227 229 231 231 231 230 229 228 228 228 226 221 220 217 219 217 213 213 208 214 211 212 205 197 201 197 189 191 187 163 158 165 162 185 176 167 174 181 186 187 177 141 197 199 206 198 200
299 257 243 277 326 310 288 267 255 252 250 248 247 244 242 235 232 235 223 229 231 232 227 225 228 223 230 225 224 220 221 225 226 225 223 222 223 228 228 231 233 235 234 232 230 230 229 227 226 223 221 220 218 220 212 214 208 215 211 205 200 196 199 191 185 186 183 181 181 173 175 166 174 127 113 153 172 197 196 190 197 199 195 201 209
240 298 353 344 311 296 294 284 270 265 259 257 253 249 244 240 238 233 231 239 238 238 239 233 235 237 238 233 231 216 218 228 226 222 220 223 223 230 230 233 233 236 236 235 233 233 233 232 230 228 224 224 221 220 218 213 203 210 208 197 198 196 196 190 189 184 187 186 189 177 172 177 176 160 162 181 189 196 194 188 205 203 189 185 216
356 348 341 319 308 310 305 300 292 279 274 263 258 255 250 246 242 241 240 241 244 240 240 234 233 238 242 239 234 228 229 228 229 229 221 217 215 223 229 233 233 235 237 239 238 233 234 233 234 230 229 227 227 226 225 220 215 212 205 193 194 193 194 191 191 191 189 191 191 176 179 185 183 182 179 190 194 180 154 181 195 185 147 204 226
347 337 312 312 317 315 314 304 303 290 276 276 273 266 259 253 250 251 252 249 245 242 234 238 238 239 240 241 238 232 233 231 231 232 233 226 220 222 226 234 231 234 234 235 238 234 234 231 235 234 233 233 231 229 227 224 220 219 215 202 196 190 189 192 197 192 193 197 187 183 189 185 186 180 193 192 189 188 183 179 184 157 183 186 214
344 332 315 315 315 309 303 303 302 293 292 278 269 261 260 256 255 254 258 257 252 245 242 241 243 241 241 239 239 236 236 231 232 235 233 232 225 226 228 233 233 235 235 236 238 237 236 235 233 231 228 226 226 228 228 227 223 221 218 210 205 204 198 190 190 192 195 192 192 197 186 191 183 184 190 178 184 186 176 169 179 187 189 198 210
344 339 334 323 313 311 307 303 295 293 286 280 274 270 259 260 257 256 253 251 259 244 246 247 248 248 246 248 247 243 246 237 236 236 235 234 231 227 233 229 234 237 233 233 234 234 235 236 239 230 228 225 226 224 222 226 227 224 221 215 210 209 213 212 203 193 185 189 191 192 195 185 184 194 187 188 177 177 167 176 188 194 197 201 210
355 339 336 337 328 325 319 311 302 293 292 288 283 274 265 257 255 252 260 260 247 253 251 250 251 249 246 248 253 251 248 242 239 239 237 235 234 231 235 232 233 236 235 232 233 233 232 233 236 237 224 218 218 218 217 220 217 219 219 215 215 215 214 213 212 205 194 189 185 194 199 188 192 191 194 176 165 178 176 191 187 186 195 208 192
351 346 341 335 337 338 335 328 316 311 304 295 290 279 268 272 267 261 254 250 249 248 250 253 249 247 248 246 254 256 252 248 244 243 242 240 238 235 239 238 240 239 236 233 232 233 232 232 234 237 227 217 214 210 214 214 213 216 216 219 217 215 214 217 212 201 196 201 200 197 193 197 201 191 174 177 185 184 183 184 182 186 164 75 53
348 348 343 338 336 331 331 323 317 314 312 308 299 288 278 267 272 270 261 260 255 258 260 246 254 250 247 247 252 258 255 245 245 243 242 243 241 239 239 240 242 241 238 232 231 230 230 227 231 233 229 224 219 219 218 209 212 215 216 217 214 212 214 213 207 201 198 197 195 199 192 193 185 160 171 179 167 128 104 83 91 106 135 160 194
355 346 337 333 331 328 327 321 316 314 312 310 301 293 290 283 272 254 261 258 257 252 251 247 246 249 251 244 247 258 259 243 243 243 242 242 241 241 239 241 243 243 241 233 231 230 228 225 226 233 228 229 222 220 217 206 213 213 213 211 210 206 215 196 192 190 192 184 185 193 192 178 162 162 170 169 161 146 128 130 164 155 153 189 203
343 336 328 327 322 321 318 314 310 309 310 305 300 296 287 277 272 252 254 267 264 253 252 258 250 242 247 248 239 254 261 243 238 243 242 239 233 237 237 239 246 243 247 237 234 234 228 224 222 226 229 227 223 213 208 203 211 211 207 203 202 207 196 139 118 123 139 142 160 169 172 165 169 171 171 169 162 156 159 182 178 156 181 192 199
346 338 328 322 317 314 310 306 300 299 298 294 294 295 293 289 286 269 257 263 266 271 264 264 264 249 241 247 247 247 260 255 241 244 241 239 235 235 234 237 246 244 242 246 234 232 232 225 223 223 227 232 227 214 210 202 208 203 200 197 205 204 191 160 159 153 150 149 149 146 167 177 175 172 174 174 170 174 184 169 142 171 184 193 166
322 316 311 313 309 312 310 308 300 297 298 296 293 285 290 296 291 284 275 259 272 272 270 265 269 266 247 247 248 241 253 258 238 239 242 241 237 233 230 233 242 245 240 241 241 233 228 229 224 229 230 228 214 213 213 207 205 201 194 202 202 206 164 172 179 172 174 169 175 173 172 177 177 174 171 169 171 180 181 162 170 175 183 174 177
320 316 316 314 316 313 312 305 307 301 288 291 293 292 290 286 290 286 282 281 272 277 267 266 269 272 263 252 253 250 240 254 248 229 238 239 238 235 235 234 238 239 241 237 234 237 233 226 225 216 223 224 216 215 213 210 201 196 199 206 206 184 166 182 186 179 176 173 169 169 169 170 176 175 171 167 169 179 181 172 176 182 175 174 176
320 321 320 319 315 316 315 313 297 294 300 301 304 298 284 275 275 280 280 280 283 279 277 274 276 278 276 257 253 258 244 237 254 240 235 238 238 237 237 239 231 235 242 241 235 235 232 221 221 211 218 223 222 217 214 211 203 198 207 207 196 181 182 181 178 179 177 175 174 173 171 175 175 175 174 172 173 178 182 180 176 182 188 184 182
322 319 316 316 318 316 315 314 315 314 306 300 296 297 302 302 293 285 285 287 281 283 282 280 281 283 285 274 252 250 247 245 242 247 238 237 237 238 239 241 227 230 236 244 237 235 227 223 219 205 211 218 221 221 216 210 208 206 199 201 196 189 178 182 180 181 180 178 177 184 183 183 179 180 176 181 184 175 180 182 176 175 190 199 198
324 324 322 321 321 322 321 319 317 317 313 313 309 303 305 303 295 286 278 277 283 285 283 277 276 279 282 288 276 246 241 241 240 239 242 238 239 239 239 240 233 228 232 245 245 236 229 218 204 205 209 213 219 219 214 211 212 210 207 204 199 191 182 180 181 187 186 183 188 189 190 188 184 183 187 187 180 175 169 172 183 185 188 194 185
332 328 326 323 323 319 317 315 313 311 308 305 308 306 303 304 303 293 259 269 267 273 280 279 271 275 282 279 285 282 243 239 245 237 237 242 242 242 242 240 240 235 234 242 236 237 221 209 199 202 204 211 215 216 218 218 215 212 207 202 191 186 184 181 184 185 194 197 194 191 188 189 193 192 169 146 138 140 159 163 162 173 167 162 160
326 324 321 319 319 318 317 315 313 304 298 287 270 270 278 291 290 289 284 265 263 264 274 279 274 271 272 277 280 281 271 245 247 238 232 243 246 246 244 243 241 238 237 238 231 228 231 230 214 203 202 206 210 210 212 214 218 213 208 200 192 191 181 182 187 193 201 198 194 192 190 187 190 158 139 142 151 171 171 172 155 154 154 154 146
320 322 323 319 315 315 311 311 314 313 303 291 275 265 262 267 271 278 274 271 269 265 267 269 274 272 271 276 278 278 276 260 248 237 227 236 240 242 243 248 246 246 244 242 237 228 221 213 203 201 194 203 206 209 210 210 213 212 205 200 201 196 190 191 193 196 198 194 195 196 195 181 138 133 152 159 171 173 171 169 172 175 161 162 164
324 320 318 313 311 315 314 311 313 310 310 311 306 304 277 242 260 268 275 271 272 276 271 268 265 266 274 275 278 280 277 269 247 226 231 232 239 237 236 241 238 235 238 235 226 216 208 207 203 199 198 206 212 216 215 212 211 210 207 202 203 200 194 191 193 198 199 196 196 189 173 156 165 166 155 163 173 168 165 169 174 171 166 156 156
328 325 324 322 318 319 313 312 311 311 308 308 295 265 277 291 276 271 261 236 233 259 271 271 266 262 260 268 274 280 279 273 261 210 225 219 221 228 229 230 229 233 234 231 222 205 187 193 195 197 197 200 206 211 212 212 216 213 209 205 201 199 194 189 195 195 191 185 193 184 177 171 168 163 162 162 170 168 168 169 172 162 162 169 186
330 328 327 322 318 319 318 313 312 309 307 306 309 306 276 240 249 270 283 271 236 240 248 258 263 273 270 262 248 254 268 275 291 231 228 226 229 227 229 228 227 228 230 227 207 200 204 205 204 200 201 201 207 210 209 210 213 213 215 209 204 201 201 198 195 189 182 189 185 181 183 177 165 161 165 171 166 164 174 173 169 165 162 181 188
326 319 322 317 314 312 307 305 305 302 299 300 301 298 306 304 273 252 256 273 271 260 257 259 263 263 256 271 270 261 260 269 275 269 257 245 230 230 233 234 233 233 226 215 200 202 206 210 212 206 207 207 211 210 208 211 212 212 213 210 208 202 199 199 194 184 184 187 186 185 182 177 169 166 168 171 170 167 167 173 161 169 182 182 187
320 314 313 308 308 306 303 300 299 298 296 293 289 292 298 301 305 296 265 250 274 275 262 262 263 260 259 256 262 277 271 267 269 266 256 250 243 232 232 233 234 233 231 210 208 212 205 207 206 208 206 211 216 212 212 212 213 212 209 211 212 205 198 200 190 184 186 183 183 180 184 183 171 169 170 171 169 167 167 166 171 181 188 185 194
306 305 306 307 305 305 304 301 300 299 300 301 300 297 291 292 298 304 308 294 262 270 280 271 264 266 265 260 254 256 265 269 265 258 249 247 248 236 230 233 234 233 228 220 217 215 208 207 208 207 201 208 204 204 209 211 212 212 210 211 211 209 202 191 174 185 185 183 178 184 182 185 177 170 170 168 169 171 171 170 176 183 181 187 196
294 287 291 293 297 296 298 300 300 298 293 288 287 289 285 282 281 288 294 303 309 287 253 253 262 266 262 258 262 263 263 264 264 261 255 243 234 231 230 235 235 232 224 223 221 220 211 208 212 210 210 210 208 200 199 199 203 211 212 212 210 202 187 173 177 182 182 183 187 187 183 185 178 170 171 175 179 169 164 170 172 178 189 195 195
294 289 286 286 281 286 288 288 288 290 291 289 287 285 285 282 281 281 281 288 290 292 300 294 269 251 265 272 268 261 259 261 260 260 256 240 226 226 232 236 234 231 229 229 225 221 215 212 212 211 208 208 205 199 200 194 195 202 209 210 206 198 178 178 182 180 181 182 183 184 181 182 184 178 174 176 173 169 170 173 182 187 190 192 191
301 297 296 293 286 282 287 290 290 290 289 286 283 277 273 279 280 277 277 275 275 282 289 285 287 284 272 268 267 267 262 254 254 254 255 235 221 220 226 230 226 225 223 226 225 223 218 216 213 214 210 210 202 202 200 198 197 196 201 204 206 197 188 182 179 177 179 179 181 175 175 184 184 180 178 182 179 175 171 178 185 189 190 190 188
305 303 299 294 290 288 287 286 284 285 287 288 286 282 278 277 274 276 277 275 278 279 278 286 293 289 270 257 257 264 262 257 254 253 250 243 230 223 227 228 227 228 227 228 227 224 221 220 214 212 203 202 198 197 194 197 194 190 191 195 197 189 186 181 178 175 175 177 174 175 178 181 179 181 177 183 184 177 173 180 184 183 186 183 172
298 296 296 300 299 298 296 294 293 296 292 288 281 277 278 278 278 276 277 277 280 280 280 283 281 280 284 288 250 245 263 258 255 255 252 247 239 227 225 225 225 225 227 226 224 221 221 216 206 205 201 194 193 187 190 191 189 186 184 186 189 192 179 179 176 173 176 177 178 175 175 178 177 178 182 185 180 176 179 181 177 175 181 182 180
301 303 302 303 299 295 293 293 295 296 294 294 288 286 281 281 281 279 276 275 277 276 276 276 275 275 275 280 280 261 251 258 246 242 236 228 227 225 224 223 222 225 225 226 224 225 220 211 200 194 192 189 184 182 182 184 180 182 176 174 172 168 175 179 182 182 180 182 180 178 177 176 176 181 185 185 177 177 183 177 178 178 180 185 192
310 307 305 305 301 298 293 293 295 294 293 292 292 290 285 282 284 285 287 286 279 277 276 274 274 273 274 274 270 260 249 250 247 242 238 232 226 223 221 223 222 220 219 219 222 221 218 206 189 182 182 181 180 178 180 172 172 169 164 168 166 172 175 172 176 174 179 174 173 171 174 175 174 175 179 190 185 180 180 181 184 184 184 184 185
307 304 302 301 299 298 295 293 289 288 292 291 289 288 286 286 285 287 286 282 279 277 274 273 273 274 272 269 265 259 253 253 251 245 240 236 230 226 224 224 221 219 217 217 219 217 206 184 175 176 169 173 172 173 173 168 158 157 163 164 162 164 161 158 161 163 163 162 164 165 168 168 167 172 187 194 194 182 178 174 174 178 184 181 176
306 303 302 302 304 300 297 295 293 294 292 290 289 287 290 288 284 280 284 281 280 279 279 278 276 276 274 268 265 262 257 253 251 250 246 239 235 230 226 221 217 213 210 204 186 169 146 142 140 140 147 153 157 161 154 157 160 159 162 160 165 158 157 160 158 161 161 168 168 173 172 175 177 184 188 181 176 172 168 175 178 176 176 177 174
303 301 300 299 298 296 296 296 298 297 294 291 287 289 289 292 291 288 282 277 276 277 277 278 279 278 274 271 270 265 255 253 249 247 246 242 235 226 214 206 193 179 163 144 141 145 141 145 139 142 145 155 160 160 163 160 158 152 154 164 165 166 164 161 160 165 163 163 167 168 168 173 174 169 171 167 172 175 174 170 169 171 172 170 171
300 299 295 295 294 291 289 285 290 289 288 289 290 290 291 290 287 282 279 278 277 278 276 277 279 279 277 277 272 261 253 251 248 244 239 221 196 163 136 123 127 124 129 137 143 144 144 142 139 133 137 148 151 149 149 154 152 155 152 152 155 159 159 160 164 164 163 160 159 159 166 167 165 166 171 175 171 178 173 170 168 167 166 171 172
298 297 294 296 295 295 291 288 278 281 293 297 296 290 286 282 284 288 285 283 285 284 282 280 279 276 277 272 263 257 256 253 246 223 195 171 144 122 117 105 99 96 92 84 87 116 120 120 120 118 108 74 69 84 90 94 108 130 144 147 151 161 169 170 172 163 162 162 162 161 164 163 170 170 171 173 173 174 173 172 170 171 178 182 185
304 302 298 294 293 294 298 303 306 303 300 299 299 299 296 291 286 288 289 292 292 290 289 287 284 281 275 274 269 265 271 286 311 27 66 61 64 60 53 56 63 63 61 51 41 57 75 95 111 111 107 89 78 68 64 61 59 50 49 60 88 103 94 89 120 145 160 161 161 163 160 165 169 172 169 171 176 178 184 186 188 190 191 187 191
311 308 312 310 310 308 308 308 310 309 308 306 304 304 304 305 307 304 301 306 307 304 306 307 316 314 316 317 329 347 5 19 28 35 43 50 57 50 51 61 69 69 50 43 50 51 60 65 69 83 80 62 66 69 63 59 64 61 57 61 65 67 59 69 61 63 61 63 90 121 135 142 140 133 140 140 146 158 160 165 168 172 167 169 170
314 315 314 315 313 314 315 318 314 315 316 315 315 311 312 317 317 320 321 323 327 332 331 339 342 345 351 1 3 8 21 25 36 43 49 45 46 54 64 68 66 57 65 56 48 51 57 62 65 62 69 76 79 65 68 70 66 65 59 59 62 70 71 73 74 67 65 71 74 84 90 98 98 107 115 126 132 133 137 125 118 114 132 127 137
322 319 318 320 319 321 322 321 324 325 323 320 321 324 330 328 329 327 328 335 340 344 347 350 349 348 4 13 14 18 28 37 27 27 49 45 45 54 55 57 57 56 57 58 55 54 64 63 68 64 68 79 82 81 79 66 69 66 74 75 71 72 71 77 81 79 78 80 81 83 87 92 103 108 110 112 118 119 121 121 127 129 124 129 136
323 325 325 325 324 322 322 322 321 321 325 327 332 331 330 328 329 335 336 341 349 359 3 0 360 359 4 9 19 17 21 23 31 31 38 51 47 50 57 63 51 48 57 58 63 59 64 60 60 69 65 57 60 71 74 76 78 81 79 87 86 81 76 71 70 74 79 79 83 88 93 98 97 104 103 115 116 125 129 140 139 138 146 148 153
324 328 326 328 328 329 332 333 333 332 332 336 339 337 331 334 334 336 342 349 357 360 2 3 3 4 11 12 16 15 19 31 38 41 43 51 54 61 71 66 63 65 62 62 62 63 48 44 62 51 49 50 54 58 54 70 76 86 94 92 89 86 77 71 74 68 75 81 91 94 107 114 121 118 121 117 122 124 135 127 129 134 138 144 145